SV1EML-13 Weather Reports


time (UTC)temp
C
wind
direction
speed
KPH
gust
KPH
rain 1hr
cm
rain 24hr
cm
rain mn
cm
humidity
%
barometer
mb
20260506230805 18 0.0 0.0 0.00 0.00 0.00 10 1017.2
20260506222306 18 0.0 0.0 0.00 0.00 0.00 10 1017.3
20260506205306 20 0.0 0.0 0.00 0.00 0.00 10 1017.7
20260506200805 20 0.0 0.0 0.00 0.00 0.00 87 1017.6
20260506192306 20 0.0 0.0 0.00 0.00 0.00 83 1017.1
20260506183805 21 0.0 0.0 0.00 0.00 0.00 65 1016.6
20260506175306 21 0.0 0.0 0.00 0.00 0.00 57 1016.2
20260506170806 21 0.0 0.0 0.00 0.00 0.00 59 1016.0
20260506162307 22 0.0 0.0 0.00 0.00 0.00 59 1016.1
20260506153805 22 0.0 0.0 0.00 0.00 0.00 58 1016.1
20260506145306 22 0.0 0.0 0.00 0.00 0.00 55 1016.2
20260506140805 22 0.0 0.0 0.00 0.00 0.00 65 1016.3
20260506132307 22 0.0 0.0 0.00 0.00 0.00 78 1016.5
20260506123805 23 0.0 0.0 0.00 0.00 0.00 70 1016.6
20260506115307 23 0.0 0.0 0.00 0.00 0.00 81 1016.8
20260506110805 23 0.0 0.0 0.00 0.00 0.00 86 1017.0
20260506102306 23 0.0 0.0 0.00 0.00 0.00 67 1017.0
20260506093805 23 0.0 0.0 0.00 0.00 0.00 82 1017.2
20260506085306 23 0.0 0.0 0.00 0.00 0.00 91 1017.3
20260506080805 22 0.0 0.0 0.00 0.00 0.00 98 1017.1
20260506072306 21 0.0 0.0 0.00 0.00 0.00 88 1016.7
20260506042305 16 0.0 0.0 0.00 0.00 0.00 10 1016.3
20260506033805 16 0.0 0.0 0.00 0.00 0.00 10 1016.0
20260506025306 16 0.0 0.0 0.00 0.00 0.00 10 1015.8
20260506020805 16 0.0 0.0 0.00 0.00 0.00 10 1016.0
20260506012308 17 0.0 0.0 0.00 0.00 0.00 10 1016.1
20260506003805 17 0.0 0.0 0.00 0.00 0.00 10 1016.1
20260505235305 17 0.0 0.0 0.00 0.00 0.00 10 1016.3